Location: Unspecified
(0.0000°N, 0.0000°E)
Time: 23:34:55
(UTC+00:00)

Envisat - Pass Details

Date: 20 February 2020
Orbit: 764 x 766 km, 98.1° (Epoch: 25 February)

Event Time Altitude Azimuth Distance (km) Brightness Sun altitude
Rises 05:19:31 0° 40° (NE) 3,215 6.6 -13.3°
Reaches altitude 10° 05:22:25 10° 57° (ENE) 2,293 6.2 -12.6°
Maximum altitude 05:25:59 19° 102° (ESE) 1,736 6.0 -11.7°
Drops below altitude 10° 05:29:32 10° 147° (SSE) 2,300 6.1 -10.9°
Sets 05:32:26 0° 164° (SSE) 3,229 6.6 -10.1°
